Location: Mentone
(34.5413°N, 85.5351°W)
Time: 20:14:06
(UTC-06:00)

Vanguard 2 Rocket - Visible Passes

Search period start: 24 February 2017 00:00
Search period end: 06 March 2017 00:00
Orbit: 553 x 3329 km, 32.9° (Epoch: 23 February)

Date Brightness Start Highest point End Pass type
(mag) Time Alt. Az. Time Alt. Az. Time Alt. Az.
25 Feb 11.3 05:21:16 10° SSE 05:29:23 14° SE 05:37:46 10° ESE visible
27 Feb 11.0 05:30:29 10° S 05:43:06 23° SE 05:56:41 10° E visible
28 Feb 11.1 04:34:51 10° SSE 04:42:28 14° SE 04:50:43 10° ESE visible
01 Mar 10.8 05:42:06 10° SSW 05:56:44 33° SE 06:13:08 10° E visible
02 Mar 10.8 04:44:23 10° S 04:56:00 23° SE 05:09:29 10° E visible
03 Mar 10.9 03:49:12 10° SSE 03:55:42 13° SE 04:02:58 10° ESE visible
04 Mar 10.5 04:56:14 10° SSW 05:09:29 33° SE 05:25:52 10° E visible
05 Mar 10.5 03:58:50 10° S 04:09:05 22° SE 04:21:48 10° E visible
